User: anonymous   Login
Location: Dresden
(51.0300°N, 13.7800°E)
Time: 18:09:44
(UTC+01:00)
Language:

COSMOS 2463 - Orbit

View from above orbital plane
View from above orbital plane
View from above satellite
View from above satellite

Ground track
Ground track

The orbit data is extracted from the following two-line orbital elements,

1 36519U 10017A   25347.85859116  .00000060  00000-0  50278-4 0  9999
2 36519  82.9612  25.8905 0034783 284.8494 249.3134 13.71649225782527
Epoch (UTC): 13 December 2025 20:36:22
Eccentricity: 0.0034783
inclination: 82.9612°
perigee height: 968 km
apogee height: 1019 km
right ascension of ascending node: 25.8905°
argument of perigee: 284.8494°
revolutions per day: 13.71649225
mean anomaly at epoch: 249.3134°
orbit number at epoch: 78252

The dashed part of the orbit path shows where the satellite is in the earth's shadow,  

DLR